Regional Weather Roundup
Issued by NWS Charleston, WV

Home | Current Version | Previous Version | Graphics & Text | Print | Product List | Glossary On
Versions: 1 2 3 4 5 6 7 8 9 10 11 12 13 14 15 16 17 18 19 20 21 22 23 24 25 26 27 28 29 30 31 32 33 34 35 36 37 38 39 40 41 42 43 44 45 46 47 48 49 50
000
ASUS41 KRLX 230510
RWRRLX
West Virginia Regional Weather Roundup
National Weather Service Charleston WV
100 AM EDT SAT MAY 23 2015

Note: "fair" indicates few or no clouds below 12,000 feet with no
significant weather and/or obstructions to visibility.

WVZ003-230600-
Northern Panhandle of West Virginia

CITY           SKY/WX    TMP DP  RH WIND       PRES   REMARKS
WHEELING       NOT AVBL
$$

WVZ009-230600-
Northwest West Virginia

CITY           SKY/WX    TMP DP  RH WIND       PRES   REMARKS
PARKERSBURG    CLEAR     54  40  59 NE5       30.34R
$$

WVZ006-230600-
Western West Virginia

CITY           SKY/WX    TMP DP  RH WIND       PRES   REMARKS
HUNTINGTON     CLEAR     53  47  79 CALM      30.29R
$$

WVZ015-230600-
West Central West Virginia

CITY           SKY/WX    TMP DP  RH WIND       PRES   REMARKS
CHARLESTON     PTCLDY    54  49  83 CALM      30.28S
$$

WVZ022-031-230600-
North Central West Virginia

CITY           SKY/WX    TMP DP  RH WIND       PRES   REMARKS
CLARKSBURG     CLOUDY    51  39  63 NE5       30.33R
MORGANTOWN     CLEAR     50  29  44 N6        30.34R
$$

WVZ025-035-042-045-230600-
Southern West Virginia

CITY           SKY/WX    TMP DP  RH WIND       PRES   REMARKS
BECKLEY        PTCLDY    50  41  71 S5        30.33S
LOGAN            N/A     54  48  82 CALM      30.29R
BLUEFIELD      PTCLDY    53  40  61 W7        30.35S
LEWISBURG      CLEAR     50  41  73 CALM      30.33S
$$

WVZ047-230600-
Northern Mountains of West Virginia

CITY           SKY/WX    TMP DP  RH WIND       PRES   REMARKS
ELKINS         PTCLDY    50  46  86 CALM      30.33R
$$

WVZ052-230600-
Eastern Panhandle of West Virginia

CITY           SKY/WX    TMP DP  RH WIND       PRES   REMARKS
MARTINSBURG      N/A     56  29  35 CALM      30.30R
PETERSBURG     PTCLDY    52  46  79 CALM      30.34R
$$



USA.gov is the U.S. government's official web portal to all federal, state and local government web resources and services.